User: anonymous   Login
Location: Newark
(41.9000°N, 12.4833°E)
Time: 19:29:47
(UTC+00:00)
Language:

DOVE 4 - Orbit

View from above orbital plane
View from above orbital plane
View from above satellite
View from above satellite

Ground track
Ground track

The orbit data is extracted from the following two-line orbital elements,

1 39430U 13066Q   19315.53604629  .00000155  00000-0  36768-4 0  9994
2 39430  97.7634 262.6099 0151423 153.9327 206.9585 14.59306299317876
Epoch (UTC): 11 November 2019 12:51:54
Eccentricity: 0.0151423
inclination: 97.7634°
perigee height: 588 km
apogee height: 802 km
right ascension of ascending node: 262.6099°
argument of perigee: 153.9327°
revolutions per day: 14.59306299
mean anomaly at epoch: 206.9585°
orbit number at epoch: 31787

The dashed part of the orbit path shows where the satellite is in the earth's shadow,  

DLR